Theta_e
333 333 331 330 332 333 333 333 334 334 334 333 333 333 333 333 334 334 334 333 332 332 331 329 329 327 324 323 324 323 320 316 314 315 316 317 316 314 316 320 323 323 322 321 319 316 313 312 311 312 311 307 306 308 307 303 302 302 301 301 301 301 301
333 333 331 331 333 332 333 334 334 334 334 333 333 333 333 333 334 333 333 332 331 330 329 328 326 324 322 320 320 318 316 315 314 314 315 315 313 313 313 316 321 324 322 321 319 317 314 312 311 312 310 307 307 309 307 303 302 302 301 301 301 301 301
333 334 333 333 332 331 332 334 334 334 334 333 333 333 333 333 333 333 331 330 329 327 325 325 324 322 319 317 315 314 313 313 313 313 313 312 310 310 310 311 316 320 320 317 316 315 313 311 311 310 308 307 307 309 306 302 302 302 301 301 301 300 301
334 334 334 334 332 331 332 333 334 334 333 333 333 333 333 333 333 332 331 329 328 326 324 324 323 319 316 314 313 312 311 310 311 310 309 309 306 305 306 308 312 315 313 310 311 312 312 311 310 309 308 307 307 309 306 302 302 302 301 301 301 301 301
334 334 334 334 332 331 331 332 333 334 334 334 334 333 333 333 333 332 330 328 327 326 324 323 320 316 313 313 311 311 309 307 307 307 305 305 304 303 304 306 308 308 305 304 305 307 308 309 309 308 308 307 308 308 304 302 302 302 301 301 301 301 301
335 335 334 334 333 332 332 331 332 333 334 333 333 333 334 333 332 330 329 328 326 325 323 321 316 313 312 311 310 310 308 305 304 304 303 303 303 303 303 304 304 303 302 302 303 303 303 305 306 307 307 307 308 307 304 302 302 301 301 301 301 301 301
335 335 335 335 334 333 332 332 331 332 332 333 333 333 332 331 330 329 328 327 326 324 323 319 314 311 311 311 309 308 305 303 303 303 303 303 302 302 302 302 302 301 302 301 302 301 301 302 303 305 307 307 306 306 304 303 302 301 301 301 301 301 300
336 336 335 335 334 333 332 331 331 331 331 332 333 332 331 329 329 329 328 326 325 324 321 318 314 311 310 310 308 306 303 303 302 302 302 302 302 302 302 301 301 301 301 301 301 301 300 301 300 302 306 307 306 306 306 305 304 302 302 301 300 300 299
336 336 336 335 334 333 332 331 331 331 331 331 332 331 329 328 327 328 328 326 325 322 319 317 313 311 311 311 307 304 303 302 302 302 302 302 302 302 301 301 301 301 301 301 301 301 301 300 300 301 304 306 306 305 305 305 303 303 302 300 299 300 299
336 336 336 335 334 333 332 332 331 330 330 331 332 330 329 327 326 328 327 325 324 321 318 315 312 310 312 309 305 303 303 302 302 302 302 302 302 301 301 301 301 301 300 301 300 300 300 300 300 300 301 305 306 305 304 304 303 303 302 299 298 299 299
337 337 337 335 334 332 331 331 330 328 330 332 331 329 328 326 327 327 326 324 323 320 317 313 311 310 310 308 303 302 302 302 302 302 302 302 301 301 301 301 301 300 300 300 300 300 300 300 300 300 300 302 305 305 305 304 305 304 302 298 298 298 298
337 337 336 334 333 331 331 330 328 327 330 332 331 329 327 326 328 327 325 324 322 319 315 313 311 310 308 305 303 302 302 302 302 302 302 302 301 301 301 300 300 300 300 300 300 300 300 300 300 300 299 300 302 303 302 302 303 304 302 299 298 298 298
338 337 335 334 333 332 331 329 328 328 331 332 330 328 326 327 328 327 324 323 321 317 314 313 311 309 306 304 302 302 302 302 302 302 301 301 301 301 300 300 300 300 299 300 299 299 300 300 299 299 299 299 299 299 299 298 300 301 301 299 298 298 298
337 336 335 334 333 331 330 329 328 330 332 331 330 327 326 327 327 325 323 322 320 316 313 312 310 307 304 302 301 301 301 301 301 301 301 301 301 300 300 300 300 299 299 299 300 299 299 299 299 298 298 298 298 298 298 298 298 299 299 299 298 298 297
336 335 334 333 332 331 330 330 330 331 331 330 329 327 327 327 327 324 322 321 318 315 312 310 308 305 303 302 301 301 301 301 301 301 301 301 301 300 300 300 299 299 299 299 299 299 299 299 299 298 298 298 298 298 298 298 298 298 298 298 298 298 297
335 335 334 333 331 331 331 331 331 330 330 329 327 327 327 327 326 324 321 320 317 314 311 309 306 304 302 301 301 301 301 301 301 301 301 300 300 300 300 299 299 299 299 299 299 299 299 298 298 298 298 298 298 298 298 298 298 298 298 298 298 298 297
335 334 333 332 331 331 331 332 330 329 328 327 327 327 327 326 325 323 321 320 317 314 312 309 305 303 301 301 301 300 301 301 300 300 300 300 300 300 300 299 299 299 299 298 298 299 299 298 298 298 298 298 298 298 298 298 298 298 298 297 297 298 297
334 334 333 332 331 331 331 330 330 329 328 328 327 327 327 325 324 323 321 320 318 315 312 308 306 303 301 301 300 300 300 300 300 300 300 300 300 299 299 299 299 299 298 298 298 298 298 298 298 298 298 298 297 297 298 298 297 297 297 297 297 297 297
333 333 332 331 331 332 331 330 329 329 329 328 327 327 326 326 325 323 322 319 317 315 312 308 305 302 301 300 300 300 300 300 300 300 300 300 299 299 299 299 299 298 298 298 298 298 298 298 298 298 297 297 297 297 297 297 297 297 297 297 297 297 296
334 333 332 332 332 332 331 329 329 329 329 328 327 327 327 327 325 323 321 319 317 315 312 308 305 302 300 300 300 300 300 300 300 300 299 299 299 299 298 298 298 298 298 298 298 298 298 298 297 297 297 297 297 297 297 297 297 297 297 297 297 296 296
334 333 333 333 333 332 331 330 329 329 328 327 327 327 328 327 324 322 320 319 317 315 311 308 305 302 300 300 300 299 299 300 300 299 299 299 299 298 299 298 298 298 298 298 298 297 297 297 297 297 297 297 297 297 297 297 297 297 297 297 296 296 296
334 334 333 333 333 332 331 330 329 328 328 327 327 328 327 326 324 323 321 319 316 313 310 307 304 302 300 299 299 299 299 299 299 299 299 299 298 299 298 298 298 298 297 297 297 297 297 297 297 297 297 297 297 297 297 297 297 297 297 297 296 296 296
335 334 334 333 331 331 331 330 329 328 327 327 327 327 326 326 324 322 321 319 317 313 310 307 304 301 300 299 299 299 299 299 299 299 299 299 299 299 298 298 298 297 297 297 297 297 297 297 297 297 297 297 297 297 297 297 297 297 297 296 296 296 296
335 334 333 332 331 331 331 330 329 328 328 327 327 326 326 325 324 323 321 319 317 314 311 307 304 302 300 300 299 299 299 299 299 299 299 298 298 298 298 298 297 297 297 297 297 297 297 297 297 297 297 297 297 297 297 297 297 297 297 296 296 295 296
335 334 332 332 332 331 331 330 329 328 328 327 327 326 326 325 324 323 321 318 316 314 311 307 304 302 301 300 300 300 299 299 299 299 299 298 298 298 298 298 297 297 297 297 296 297 297 297 297 297 297 297 297 297 297 297 297 297 296 296 296 295 296
335 334 332 332 332 331 330 329 328 327 327 327 327 326 326 325 324 322 320 318 315 313 310 307 305 304 302 301 300 300 300 299 299 300 299 299 299 299 299 299 298 297 297 296 296 297 297 297 297 297 297 298 298 298 297 297 297 297 296 296 296 296 297
335 333 332 332 331 330 329 329 328 327 327 327 326 326 326 325 323 322 320 317 314 312 310 308 306 305 303 302 301 300 300 300 301 301 300 299 299 299 299 299 298 297 297 297 297 297 296 297 298 297 298 298 299 298 297 297 298 298 297 297 296 297 299
334 333 332 331 331 330 329 329 328 327 327 327 327 326 326 324 323 322 320 317 314 312 310 308 307 306 305 304 303 302 301 302 302 302 300 299 299 299 299 299 298 297 297 298 298 297 297 298 298 298 298 298 298 298 297 298 298 298 298 297 297 297 300
334 333 332 331 331 330 329 329 327 327 327 327 326 325 325 324 323 323 321 317 315 313 311 309 308 307 306 305 304 303 303 303 302 302 301 299 299 299 299 300 298 297 298 300 299 298 298 298 298 297 298 298 298 298 297 298 299 299 298 297 297 298 300
334 333 332 332 331 330 329 328 327 327 327 326 326 325 324 324 324 324 322 320 317 314 312 310 309 308 307 306 305 304 303 303 303 303 302 300 299 298 299 299 298 298 300 301 300 298 298 298 297 297 297 298 297 298 297 297 299 299 299 298 297 298 300
334 333 333 332 331 330 330 329 328 327 327 327 326 325 325 324 324 324 323 322 318 315 312 310 309 309 308 307 306 305 304 303 304 304 303 300 299 299 298 299 299 299 301 301 300 298 297 298 298 297 297 297 297 297 297 297 298 299 299 298 297 298 300
334 333 332 332 331 330 330 329 328 327 327 327 326 325 325 325 325 325 323 321 318 314 312 310 310 310 309 308 307 306 305 304 304 304 303 301 300 300 299 299 299 300 300 300 299 298 298 299 298 298 297 297 297 297 297 297 297 298 297 297 297 298 300
334 333 332 332 331 330 330 329 328 327 326 326 325 325 325 325 326 325 322 320 317 314 312 311 310 310 310 309 308 308 306 305 304 304 304 302 301 301 300 299 300 301 300 299 299 299 298 298 298 298 297 297 297 297 297 297 297 297 296 296 297 298 299
334 333 333 332 331 330 330 329 328 327 327 326 325 324 325 325 326 324 322 320 317 314 312 311 311 310 310 310 309 308 308 306 305 304 304 303 302 302 300 300 300 300 300 299 299 299 298 297 297 297 297 297 297 297 297 297 297 296 296 296 297 298 298
333 332 332 332 330 329 329 329 328 327 326 326 325 325 325 325 325 324 322 319 317 315 313 311 311 311 310 310 310 309 309 308 306 305 304 304 303 302 301 300 300 300 300 299 299 298 297 297 297 297 297 296 296 297 296 296 296 296 296 296 297 298 298
332 332 332 330 329 329 329 328 328 327 326 326 325 325 324 324 323 322 320 318 316 314 313 312 311 311 311 310 310 310 309 308 306 304 305 305 304 303 302 300 300 301 301 301 299 299 298 299 299 298 297 296 296 296 296 296 296 296 296 296 297 298 298
332 332 331 330 329 328 328 328 327 326 326 326 325 324 324 323 322 321 320 318 316 314 313 313 312 311 311 310 310 309 309 308 305 304 304 304 304 304 302 300 299 301 303 302 300 299 300 301 301 299 297 296 296 296 296 296 296 296 296 296 297 299 299
Wind_Speed
32 29 29 27 26 24 23 24 24 25 25 24 25 25 24 24 23 22 20 19 19 19 18 18 18 18 19 21 21 21 21 21 20 19 17 15 15 15 15 15 14 11 9 9 9 8 9 9 9 8 6 4 2 2 3 4 5 5 7 7 6 8 8
30 28 28 28 26 25 24 25 26 26 25 26 25 25 24 23 22 20 19 18 19 19 19 18 17 18 19 19 19 20 21 21 20 18 16 14 14 15 16 16 16 15 13 11 10 10 9 7 8 9 8 5 3 2 3 4 4 4 5 4 4 5 6
31 30 28 28 28 26 25 26 26 26 26 26 26 25 24 22 21 19 18 18 18 18 17 18 18 18 18 18 18 19 20 20 19 17 15 14 15 16 17 18 17 16 14 12 12 12 10 8 7 9 9 7 4 4 5 4 4 3 2 1 2 3 4
32 31 30 30 30 28 27 28 27 26 26 27 26 25 23 22 21 19 19 19 17 15 16 19 19 17 17 17 16 16 17 18 17 16 15 14 14 15 17 17 16 15 13 12 12 12 11 10 8 9 10 8 7 7 7 6 4 2 1 1 0 2 5
34 33 32 31 31 30 29 29 28 27 27 27 26 25 24 23 22 21 21 19 15 14 17 20 19 16 16 15 14 13 14 15 15 15 14 13 13 13 14 15 14 13 12 11 11 12 12 12 10 9 9 8 9 11 10 7 5 4 2 2 2 4 7
35 33 32 32 31 31 30 30 30 29 28 27 27 25 24 24 23 22 22 18 15 15 17 19 18 16 15 14 12 12 13 13 14 13 13 12 12 12 12 12 12 11 11 10 10 10 11 12 12 10 9 8 9 12 13 10 7 5 4 4 5 7 9
35 34 33 32 31 30 30 30 30 28 27 26 26 25 25 24 23 22 20 16 15 16 18 18 17 15 14 13 12 13 13 14 13 13 13 12 12 12 12 11 11 10 10 10 9 8 8 9 11 12 12 11 10 12 14 12 10 7 5 6 7 9 10
35 34 33 32 31 30 30 30 28 27 25 25 25 24 24 23 22 21 19 15 16 19 19 18 17 15 13 12 12 13 14 14 14 13 13 12 12 12 11 11 11 10 9 9 8 8 8 8 9 11 14 14 13 14 15 14 12 10 7 7 8 9 9
36 34 33 32 31 30 30 29 26 25 24 25 24 24 24 22 20 19 17 15 17 20 19 17 15 13 12 12 13 14 14 14 14 13 13 12 12 11 11 11 10 9 9 8 8 8 8 8 8 9 12 15 15 16 16 14 13 12 9 7 7 7 7
37 36 34 32 31 31 30 28 25 24 25 25 25 25 24 22 20 18 16 15 17 18 17 16 14 12 12 13 14 14 14 14 14 14 13 12 12 12 11 11 10 9 9 9 8 8 8 8 8 8 11 14 15 15 16 16 13 11 8 6 5 5 6
37 35 34 32 32 31 31 28 26 25 26 25 25 25 24 22 19 17 16 16 17 17 16 15 14 12 13 15 15 15 14 14 15 15 14 13 13 12 12 11 10 10 10 9 9 8 8 7 8 8 9 13 15 14 14 15 13 9 7 5 6 6 6
37 35 34 33 32 32 31 29 26 26 26 26 26 25 23 21 19 17 17 17 18 17 16 15 14 13 14 16 16 16 16 16 15 15 15 14 13 13 12 11 11 11 10 10 9 9 8 8 8 8 8 10 13 13 12 11 10 8 6 5 6 7 7
37 35 34 33 32 32 30 28 26 26 27 27 26 25 23 20 18 17 17 18 19 18 17 16 15 15 16 16 16 16 16 16 16 16 15 14 14 13 12 12 11 11 11 10 10 9 9 9 9 9 8 8 9 9 8 7 7 6 6 6 5 6 6
37 35 34 33 32 31 29 27 26 27 27 28 27 25 22 19 17 17 18 18 19 18 17 16 16 16 16 17 17 17 17 17 17 16 15 15 14 13 13 12 12 12 12 11 10 10 10 10 10 9 8 7 7 7 6 5 5 6 6 5 5 5 6
36 35 34 33 32 30 29 27 26 26 27 28 27 25 22 19 17 17 18 19 19 18 17 17 17 17 17 17 18 18 18 17 17 17 16 15 14 14 13 13 13 12 12 11 11 10 10 10 10 9 8 7 6 6 6 5 4 5 5 4 4 5 6
36 35 34 33 31 30 28 26 26 26 27 27 27 24 21 19 18 18 19 19 19 18 18 18 17 17 17 18 18 18 18 18 17 17 17 16 15 14 14 13 13 12 12 11 11 10 10 10 10 9 9 7 6 5 5 4 3 3 4 3 4 5 6
37 35 35 33 31 29 28 26 25 26 27 27 25 23 21 19 18 18 19 19 19 19 18 18 17 17 18 18 18 19 19 18 18 18 17 16 15 14 14 14 13 13 12 12 11 10 10 10 10 9 8 6 5 4 4 3 2 3 3 3 4 6 7
38 36 35 33 31 30 28 27 26 27 27 26 24 22 22 20 18 17 19 19 19 18 17 17 17 17 18 19 19 19 19 19 19 18 17 16 15 14 14 14 13 13 13 12 11 11 10 10 9 7 6 5 4 4 3 3 3 4 4 5 5 7 8
39 37 35 33 32 31 29 28 27 28 27 25 24 23 21 19 18 18 19 19 18 17 17 17 17 18 18 19 20 20 20 20 19 18 18 17 15 15 14 14 14 14 13 12 11 11 10 9 7 6 5 5 4 4 3 3 3 3 4 5 6 6 7
39 38 35 34 33 32 30 28 28 28 27 25 24 23 21 18 18 18 19 18 17 16 16 17 17 18 19 20 21 21 21 20 19 18 18 17 16 15 15 15 15 13 12 11 10 9 8 7 6 5 5 5 5 4 3 2 2 2 3 4 5 6 7
38 37 35 34 34 32 30 29 28 28 27 26 24 22 19 18 18 19 19 18 17 16 17 17 18 19 20 20 21 21 21 20 19 19 19 18 18 16 15 15 15 13 12 10 9 8 8 7 7 7 6 6 5 4 4 3 2 3 3 4 5 6 7
37 37 36 35 34 33 31 29 28 29 28 25 24 22 19 17 18 19 19 19 17 17 17 18 18 19 19 20 21 21 21 20 20 20 19 19 19 17 16 15 14 13 11 10 9 9 9 8 8 8 7 6 5 5 4 4 3 3 4 4 4 6 8
38 38 37 36 34 33 31 30 30 30 28 25 23 22 19 18 19 20 20 19 18 18 18 18 18 18 19 20 20 21 21 20 20 21 20 20 19 17 16 15 14 12 11 10 10 10 9 9 8 8 7 6 5 5 4 4 4 4 5 5 5 7 8
40 39 37 36 34 34 33 31 31 31 28 25 24 23 20 19 19 19 19 18 18 18 18 18 18 17 18 19 20 20 21 21 21 21 20 19 18 17 16 15 13 11 11 11 10 9 9 9 8 7 7 6 5 5 5 5 5 5 5 4 5 8 9
40 39 37 36 36 35 33 32 32 31 29 27 26 24 20 18 18 19 19 19 18 18 17 17 17 17 18 19 20 20 19 20 21 21 19 18 17 16 14 13 12 11 11 11 10 9 9 9 8 7 7 6 5 5 6 6 6 6 5 3 5 7 8
40 39 37 36 36 35 34 34 33 31 29 28 27 23 19 17 17 19 20 20 19 18 17 16 16 17 18 18 19 19 19 20 20 20 19 17 16 14 12 11 10 10 11 11 9 9 9 9 8 7 7 6 7 8 8 8 8 6 5 4 6 7 6
39 38 37 36 35 34 34 34 32 29 29 29 26 22 20 18 18 19 20 20 19 18 17 17 17 17 18 18 18 19 19 20 19 19 19 17 16 14 11 10 8 9 10 10 8 9 10 9 8 8 7 8 8 9 10 10 9 7 4 4 7 7 5
38 37 36 36 35 34 35 34 29 27 30 29 26 23 21 19 18 19 20 20 19 19 18 18 18 18 18 18 18 18 19 19 19 20 19 18 19 18 15 14 13 13 13 10 8 11 12 12 11 10 10 9 10 11 11 10 10 8 4 4 7 6 4
37 36 36 36 35 35 35 32 26 26 30 29 26 24 22 20 18 18 19 20 20 20 20 20 19 19 18 18 19 19 19 20 21 22 21 20 21 19 18 18 17 15 13 10 10 14 16 14 14 12 11 11 11 11 11 10 9 7 5 5 6 5 3
36 36 35 35 35 35 34 30 25 26 30 30 28 26 24 21 19 18 19 20 21 21 21 21 21 20 19 20 20 20 20 20 21 22 21 20 20 19 19 19 16 13 12 12 14 18 18 16 15 13 12 12 12 11 10 9 9 8 7 7 7 6 4
35 34 33 33 34 34 33 30 26 26 30 31 30 28 25 21 19 17 18 20 21 22 22 22 23 22 21 21 22 22 21 20 21 22 20 20 19 18 19 18 14 12 13 15 18 19 18 17 15 14 15 14 12 10 9 9 8 8 8 8 9 7 5
33 31 31 31 32 33 33 31 27 26 30 32 31 29 26 23 19 18 20 21 22 22 23 23 24 23 22 22 23 23 21 21 22 22 21 21 20 19 19 17 13 13 15 18 19 19 18 16 14 14 15 13 11 10 9 9 8 8 8 8 8 7 6
34 31 29 29 30 31 33 32 28 26 29 32 32 30 27 23 21 21 22 23 23 23 24 24 25 24 23 23 23 23 22 22 23 23 23 22 22 21 20 17 14 15 17 19 19 18 17 16 14 13 13 12 11 11 10 9 8 8 8 8 8 7 6
39 35 29 26 28 30 31 31 28 27 29 32 33 31 28 25 23 24 25 25 24 24 24 25 25 25 24 24 24 23 22 22 23 24 24 24 24 23 21 18 16 16 18 19 19 19 18 16 13 12 12 12 12 11 11 10 9 9 10 9 9 7 6
37 33 28 26 26 28 30 30 28 26 29 32 33 32 31 29 27 26 26 26 25 25 25 25 25 25 25 25 24 24 22 22 23 25 25 25 25 24 22 19 18 18 18 18 19 19 18 14 13 13 13 13 13 13 12 11 10 10 10 10 9 7 6
30 29 27 25 24 26 30 30 27 28 30 32 34 35 34 32 29 28 28 28 27 27 25 25 26 26 25 25 24 24 23 22 23 26 27 27 26 26 24 22 20 18 17 17 17 17 15 13 12 13 14 14 15 14 13 12 11 11 11 11 9 7 4
30 28 27 24 22 25 29 29 28 30 31 32 34 35 35 32 30 29 30 30 30 28 26 26 27 27 26 25 25 24 24 22 23 26 29 29 28 28 27 25 22 20 18 17 16 16 14 12 11 12 14 16 16 15 14 13 12 11 11 10 9 7 5
Wind_Direction
210 209 207 207 209 210 208 207 210 212 212 214 217 218 219 221 223 227 233 239 244 246 249 253 251 240 227 223 225 227 228 228 229 230 230 231 230 225 220 220 222 223 222 220 216 212 206 201 199 192 184 175 156 90 79 71 59 41 35 37 24 17 18
213 212 209 206 207 210 209 209 212 214 214 215 217 220 221 223 225 229 235 241 245 248 252 254 245 230 223 221 222 224 227 230 231 231 232 236 235 233 229 227 226 226 228 230 225 223 218 208 203 191 175 169 174 152 136 104 80 63 50 42 17 12 3
212 211 209 208 208 209 209 210 212 214 216 217 218 219 221 224 227 232 237 241 245 250 251 246 233 222 219 219 218 220 225 230 233 234 238 242 241 236 233 233 231 230 234 234 231 230 220 210 203 183 167 160 153 157 156 126 108 104 64 19 5 3 341
213 209 208 208 208 209 211 212 214 215 217 220 222 223 224 228 232 235 238 240 245 251 247 236 228 221 217 217 217 217 221 227 231 235 238 239 239 233 228 230 234 237 243 242 241 241 233 226 217 190 175 166 157 162 159 141 142 155 129 147 284 314 321
216 213 211 211 211 212 213 215 215 215 217 221 224 227 229 233 237 239 242 243 244 248 246 235 227 223 219 220 222 222 224 225 226 229 232 232 231 228 224 226 231 237 244 246 246 247 243 241 234 210 184 167 160 162 158 157 167 168 172 198 261 293 303
218 217 216 216 216 217 218 218 218 217 218 222 226 230 234 237 239 241 246 246 237 237 242 235 227 224 225 227 229 233 234 230 226 224 225 227 228 226 226 228 232 235 239 242 242 241 238 234 232 223 202 180 169 165 162 167 174 177 205 241 270 284 295
219 219 219 220 220 222 222 221 221 220 221 225 229 233 235 237 238 240 243 243 235 230 230 229 226 224 227 230 232 236 236 230 226 224 223 226 227 227 230 233 236 238 239 240 239 236 233 227 227 223 209 193 177 172 173 177 182 193 219 249 267 279 293
220 220 220 222 224 226 225 224 224 223 224 228 231 232 233 234 237 240 240 236 232 227 223 223 224 222 226 231 232 233 232 226 224 225 226 228 230 231 235 238 240 239 239 240 239 236 234 231 227 221 213 202 184 176 182 188 193 204 227 260 273 278 286
220 220 221 223 226 228 228 226 226 226 227 229 230 230 230 232 237 244 245 236 227 224 221 222 221 221 229 235 234 230 225 222 222 225 227 228 229 232 235 237 237 237 236 237 238 236 234 232 228 220 214 212 202 187 186 193 201 213 233 257 266 271 280
219 220 222 223 225 226 227 228 227 228 229 229 229 229 229 233 238 244 248 241 230 223 221 222 219 220 232 236 232 226 222 221 222 223 225 226 228 229 231 232 231 231 232 231 233 235 233 232 232 225 212 210 211 204 197 199 206 219 237 248 249 262 284
219 220 223 225 225 225 224 225 227 229 230 228 227 227 228 234 238 239 240 238 233 227 222 221 218 219 230 233 225 220 220 222 222 224 224 224 227 228 228 228 227 227 228 230 232 233 234 233 232 232 221 209 209 214 214 212 213 223 239 251 261 273 290
218 220 222 224 226 226 225 225 228 230 229 227 226 226 228 232 236 236 234 232 231 228 224 221 220 222 228 229 222 218 219 221 224 226 225 225 227 228 227 226 226 225 224 226 228 229 231 232 229 230 227 217 213 218 224 223 222 229 237 249 268 283 297
218 220 222 224 226 226 226 229 233 231 227 227 226 226 229 232 235 234 231 229 228 226 223 223 223 225 227 225 221 219 221 222 225 226 226 226 226 225 225 224 223 222 221 222 224 227 230 230 229 227 225 223 219 218 218 218 223 231 238 251 268 285 299
218 219 221 224 225 226 227 230 233 229 227 228 227 227 230 233 234 232 228 228 227 225 224 225 226 226 225 223 220 219 222 224 226 226 227 227 225 223 224 225 224 221 220 222 224 228 232 232 230 226 222 220 218 214 209 207 216 227 241 260 272 285 302
219 219 221 223 224 225 227 228 228 227 227 228 228 228 231 231 230 228 224 225 226 225 225 227 229 228 226 225 221 220 223 225 227 228 227 227 225 224 225 225 225 223 222 225 228 228 232 234 233 229 223 220 217 213 209 205 214 229 238 256 269 281 305
219 220 220 221 222 224 225 225 225 227 227 227 226 226 227 229 229 224 220 223 225 225 225 226 228 230 229 227 225 223 225 226 228 230 229 228 227 227 228 226 225 224 223 224 227 229 232 234 236 235 228 226 228 228 226 222 229 249 253 270 291 296 318
218 218 219 218 220 223 225 223 222 223 224 223 222 222 223 225 225 220 218 222 225 225 226 227 227 229 229 228 227 227 227 228 228 229 230 231 230 229 230 229 226 224 223 224 226 228 231 234 239 240 232 230 239 244 250 257 277 301 303 319 323 318 332
216 216 216 216 218 222 224 221 218 219 220 220 220 221 221 222 220 218 220 224 227 227 228 229 228 228 229 228 226 226 229 230 229 229 230 230 231 231 230 230 230 227 224 226 228 230 233 233 235 240 234 231 236 246 267 294 318 332 333 337 339 335 337
214 214 214 217 220 221 222 221 217 217 220 220 221 220 221 223 221 220 223 225 228 229 229 229 229 229 230 228 225 224 227 230 230 230 231 231 231 230 228 229 231 230 229 228 229 233 235 231 226 231 238 236 234 241 268 310 328 339 344 341 343 346 342
213 213 214 218 220 220 222 222 219 218 219 220 222 222 222 224 223 222 225 226 228 229 230 230 229 229 230 228 226 225 226 228 229 230 231 232 231 229 228 230 231 232 232 230 230 231 232 226 215 214 230 238 236 239 254 283 305 317 334 336 343 351 349
213 212 214 217 219 219 222 222 220 219 220 221 222 223 225 227 225 225 226 227 229 229 229 230 229 229 229 228 227 227 227 229 230 230 230 231 231 230 230 231 231 232 232 229 226 226 225 221 211 210 221 234 239 243 252 260 269 289 314 330 344 355 357
213 213 214 216 218 219 220 220 220 220 223 224 222 221 226 230 229 228 228 227 227 228 229 230 229 230 230 229 228 228 229 230 231 232 232 231 231 231 232 233 231 230 228 224 220 220 220 220 217 218 223 230 237 243 249 257 265 279 301 322 343 357 2
211 212 213 215 218 218 217 218 219 220 224 225 221 219 225 230 229 230 230 228 228 228 229 229 229 231 232 231 231 230 230 231 231 233 234 233 233 231 231 231 230 227 223 218 217 218 221 224 223 225 229 230 237 245 251 257 262 273 294 316 338 354 1
210 211 213 216 217 216 217 217 217 221 225 222 217 218 225 228 231 232 231 232 233 232 231 230 228 229 230 230 231 231 232 232 232 233 234 234 235 234 232 230 227 225 220 215 216 219 221 226 228 230 234 233 236 246 254 259 262 271 291 318 344 355 358
209 211 214 216 215 214 215 215 217 222 224 218 213 217 223 228 233 235 233 233 235 234 234 230 228 228 229 230 231 231 233 233 232 232 232 232 234 234 235 234 227 221 218 215 217 222 225 229 233 238 243 248 259 268 266 262 263 271 287 317 347 354 356
210 212 215 215 215 215 214 215 219 223 218 212 213 218 222 227 233 235 235 234 234 233 232 230 229 229 229 230 230 229 231 233 231 230 228 230 235 236 237 240 232 221 218 218 221 230 233 233 237 245 253 263 277 279 272 264 260 266 287 325 348 357 4
211 212 215 216 216 216 216 218 223 221 212 210 215 218 221 226 231 235 236 235 234 233 232 231 231 230 230 230 229 229 230 229 228 228 228 229 233 232 229 235 236 224 219 220 230 243 244 242 242 245 249 261 271 273 270 264 259 263 286 336 353 3 18
210 212 215 216 217 217 217 222 226 219 210 213 218 219 222 227 232 236 238 235 234 234 234 234 233 232 231 230 230 229 228 226 226 230 231 231 232 230 229 235 235 228 226 229 238 246 247 246 246 242 242 255 264 264 263 261 260 269 289 335 350 2 22
208 212 215 216 217 217 219 224 227 219 212 214 218 219 222 227 233 239 240 237 236 236 235 234 233 233 232 232 231 230 228 228 231 233 234 234 235 235 238 240 234 226 230 240 241 241 242 243 244 243 246 255 258 256 259 262 269 281 295 320 336 344 3
208 212 215 217 218 219 220 225 228 221 215 215 217 218 220 225 234 243 246 243 240 237 234 232 231 232 233 233 232 232 233 233 233 235 237 238 235 233 237 239 232 226 238 250 242 235 236 237 241 245 247 251 253 255 262 270 280 296 305 315 325 324 330
211 214 217 219 220 221 223 227 228 224 220 217 218 219 221 225 234 246 254 251 244 238 233 231 232 234 235 234 234 237 241 239 235 235 239 239 235 232 234 235 230 227 242 250 242 233 233 235 240 246 247 249 253 257 265 273 284 303 311 312 312 303 293
212 217 220 221 222 224 226 227 228 228 224 220 220 221 222 226 234 246 252 248 242 238 234 231 233 236 238 238 238 242 246 244 238 237 239 238 235 234 234 233 230 230 238 244 240 235 234 234 238 246 250 254 257 258 265 273 280 295 300 298 296 280 259
214 218 221 222 223 225 226 225 225 227 225 221 221 222 223 229 237 243 243 241 238 236 234 234 235 237 240 242 242 245 248 247 243 239 239 238 236 235 233 232 235 239 241 243 243 241 238 236 238 246 253 257 257 257 262 269 275 283 287 291 292 273 252
214 211 213 220 224 225 224 224 225 226 224 222 221 222 225 231 237 240 240 239 238 236 234 236 238 239 242 244 245 247 250 251 248 244 241 240 238 236 235 236 242 248 249 249 249 248 246 243 241 246 254 258 257 256 258 262 268 277 281 287 289 278 267
211 207 210 219 224 224 222 223 226 227 224 222 222 223 226 229 233 236 237 236 237 236 235 237 239 240 243 246 247 248 251 254 251 245 241 240 239 238 239 242 248 252 253 254 254 251 248 246 244 245 250 255 255 255 257 258 263 270 276 281 284 282 282
206 206 212 218 224 225 222 222 224 224 224 224 224 224 226 227 229 232 233 233 234 233 234 237 240 242 244 246 248 248 249 252 251 244 241 241 240 239 242 246 249 250 250 251 251 246 242 242 246 246 247 251 254 256 257 259 262 267 274 280 278 275 285
203 208 212 217 225 228 223 221 223 224 224 225 226 227 228 229 231 233 234 233 231 230 233 237 241 243 244 246 247 247 249 252 249 242 240 241 241 241 243 246 247 247 248 249 248 243 236 237 246 248 245 247 252 255 257 260 263 266 271 276 269 261 270